Location: Litvinovka
(48.6667°N, 34.3500°E)
Time: 10:43:47
(UTC+00:00)

Ariane Rocket - Pass Details

Date: 18 September 2020
Orbit: 760 x 769 km, 98.7° (Epoch: 25 October)

Event Time Altitude Azimuth Distance (km) Brightness Sun altitude
Exits shadow 18:09:45 - 197° (SSW) 2,476 5.5 -23.0°
Reaches altitude 10° 18:10:16 10° 199° (SSW) 2,293 5.3 -23.0°
Maximum altitude 18:14:50 34° 264° (W) 1,252 4.5 -23.7°
Drops below altitude 10° 18:19:27 10° 329° (NNW) 2,314 6.3 -24.3°
Sets 18:21:59 0° 338° (NNW) 3,247 7.1 -24.7°
